TimeEST,TemperatureF,Dew PointF,Humidity,Sea Level PressureIn,VisibilityMPH,Wind Direction,Wind SpeedMPH,Gust SpeedMPH,PrecipitationIn,Events,Conditions,WindDirDegrees,DateUTC
12:00 AM,60.8,60.8,100,30.03,0.2,SW,4.6,-,N/A,Fog,Fog,230,2011-12-22 05:00:00
12:27 AM,60.8,60.8,100,30.03,0.2,WSW,4.6,-,N/A,Fog,Fog,240,2011-12-22 05:27:00
12:53 AM,61.0,61.0,100,30.02,0.5,WSW,5.8,-,N/A,Fog,Fog,240,2011-12-22 05:53:00
1:15 AM,60.8,60.8,100,30.03,1.5,WSW,9.2,-,N/A,,Overcast,240,2011-12-22 06:15:00
1:22 AM,60.8,60.8,100,30.03,3.0,WSW,9.2,-,N/A,,Overcast,250,2011-12-22 06:22:00
1:53 AM,61.0,60.1,97,30.03,7.0,WSW,6.9,-,N/A,,Overcast,240,2011-12-22 06:53:00
2:05 AM,60.8,60.8,100,30.04,6.0,SW,6.9,-,N/A,,Overcast,230,2011-12-22 07:05:00
2:53 AM,61.0,60.1,97,30.03,7.0,SSW,6.9,-,N/A,,Overcast,210,2011-12-22 07:53:00
3:00 AM,60.8,60.8,100,30.05,7.0,SSW,6.9,-,N/A,,Overcast,210,2011-12-22 08:00:00
3:53 AM,61.0,60.1,97,30.04,6.0,SW,6.9,-,N/A,,Overcast,230,2011-12-22 08:53:00
4:45 AM,60.8,60.8,100,30.05,5.0,WSW,8.1,-,N/A,,Overcast,240,2011-12-22 09:45:00
4:53 AM,61.0,60.1,97,30.04,5.0,WSW,8.1,-,N/A,,Overcast,250,2011-12-22 09:53:00
5:53 AM,61.0,60.1,97,30.05,4.0,SW,8.1,-,N/A,,Overcast,230,2011-12-22 10:53:00
6:53 AM,61.0,60.1,97,30.07,4.0,WSW,5.8,-,N/A,,Overcast,240,2011-12-22 11:53:00
7:19 AM,60.8,60.8,100,30.08,2.5,West,5.8,-,N/A,,Overcast,270,2011-12-22 12:19:00
7:53 AM,61.0,61.0,100,30.07,0.8,SSW,4.6,-,N/A,,Overcast,210,2011-12-22 12:53:00
8:03 AM,60.8,60.8,100,30.09,0.2,SSW,4.6,-,N/A,Fog,Fog,200,2011-12-22 13:03:00
8:14 AM,60.8,60.8,100,30.08,0.2,Calm,Calm,-,N/A,Fog,Fog,0,2011-12-22 13:14:00
9:34 AM,60.8,60.8,100,30.09,0.2,SSE,3.5,-,N/A,Fog,Fog,160,2011-12-22 14:34:00
10:05 AM,62.6,60.8,94,30.10,0.5,SSE,3.5,-,0.01,Fog,Fog,160,2011-12-22 15:05:00
10:53 AM,62.1,62.1,100,30.09,1.0,South,3.5,-,0.01,,Mist,180,2011-12-22 15:53:00
11:14 AM,62.6,62.6,100,30.09,3.0,SSW,4.6,-,N/A,,Overcast,210,2011-12-22 16:14:00
11:53 AM,63.0,62.1,97,30.07,10.0,SSW,5.8,-,N/A,,Overcast,200,2011-12-22 16:53:00
12:27 PM,62.6,62.6,100,30.05,6.0,South,5.8,-,0.00,Rain,Light Rain,180,2011-12-22 17:27:00
12:37 PM,62.6,62.6,100,30.05,1.8,South,6.9,-,0.00,Rain,Light Rain,170,2011-12-22 17:37:00
12:53 PM,63.0,62.1,97,30.03,1.2,South,6.9,-,0.01,Rain,Light Rain,180,2011-12-22 17:53:00
1:30 PM,62.6,62.6,100,30.01,1.2,SSE,4.6,-,0.16,Rain,Heavy Rain,160,2011-12-22 18:30:00
1:53 PM,63.0,62.1,97,29.99,2.5,South,5.8,-,0.30,Rain,Light Rain,170,2011-12-22 18:53:00
2:00 PM,62.6,62.6,100,29.99,2.0,SSE,4.6,-,0.00,Rain,Light Rain,150,2011-12-22 19:00:00
2:16 PM,62.6,62.6,100,29.98,3.0,SSE,8.1,-,0.00,,Overcast,150,2011-12-22 19:16:00
2:26 PM,62.6,62.6,100,29.97,2.5,SSE,9.2,-,0.01,Rain,Rain,150,2011-12-22 19:26:00
2:35 PM,62.6,62.6,100,29.97,4.0,SSE,9.2,-,0.01,Rain,Light Rain,160,2011-12-22 19:35:00
3:22 PM,64.4,62.6,94,29.95,2.5,South,13.8,-,0.01,Rain,Light Rain,180,2011-12-22 20:22:00
3:32 PM,64.4,62.6,94,29.95,8.0,South,12.7,19.6,0.01,,Overcast,180,2011-12-22 20:32:00
3:51 PM,64.4,62.6,94,29.94,9.0,South,10.4,-,0.01,,Overcast,190,2011-12-22 20:51:00
3:53 PM,64.0,63.0,96,29.93,9.0,South,9.2,-,0.01,,Overcast,190,2011-12-22 20:53:00
4:53 PM,64.9,63.0,93,29.93,9.0,South,8.1,-,N/A,,Overcast,190,2011-12-22 21:53:00
5:35 PM,64.4,64.4,100,29.93,10.0,South,6.9,-,0.00,Rain,Light Rain,190,2011-12-22 22:35:00
5:44 PM,64.4,64.4,100,29.93,9.0,South,5.8,-,0.00,Rain,Light Rain,190,2011-12-22 22:44:00
5:53 PM,64.9,64.0,97,29.91,8.0,South,6.9,-,0.00,Rain,Light Rain,170,2011-12-22 22:53:00
6:28 PM,64.4,62.6,94,29.93,5.0,South,10.4,-,0.01,Rain,Rain,180,2011-12-22 23:28:00
6:35 PM,64.4,64.4,100,29.93,3.0,South,9.2,-,0.04,Rain,Heavy Rain,180,2011-12-22 23:35:00
6:53 PM,64.9,64.0,97,29.93,8.0,South,8.1,-,0.05,Rain,Light Rain,190,2011-12-22 23:53:00
7:00 PM,64.4,64.4,100,29.95,6.0,South,8.1,-,0.01,Rain,Rain,190,2011-12-23 00:00:00
7:53 PM,64.9,63.0,93,29.94,5.0,SSW,11.5,19.6,0.19,Rain,Rain,200,2011-12-23 00:53:00
8:37 PM,64.4,62.6,94,29.95,4.0,South,13.8,-,0.14,Rain,Heavy Rain,190,2011-12-23 01:37:00
8:53 PM,64.0,62.1,93,29.91,5.0,South,17.3,28.8,0.18,Rain,Rain,190,2011-12-23 01:53:00
9:08 PM,64.4,60.8,88,29.91,10.0,South,16.1,25.3,0.01,Rain,Light Rain,190,2011-12-23 02:08:00
9:53 PM,64.0,61.0,90,29.90,10.0,SSW,13.8,20.7,0.01,Rain,Light Rain,210,2011-12-23 02:53:00
10:53 PM,64.0,61.0,90,29.92,10.0,SW,15.0,26.5,N/A,,Overcast,220,2011-12-23 03:53:00
11:53 PM,64.0,60.1,87,29.93,10.0,SW,13.8,25.3,N/A,,Overcast,220,2011-12-23 04:53:00